Time,TemperatureF,DewpointF,PressureIn,WindDirection,WindDirectionDegrees,WindSpeedMPH,WindSpeedGustMPH,Humidity,HourlyPrecipIn,Conditions,Clouds,dailyrainin,SoftwareType,DateUTC
2013-09-09 00:02:00,75.4,71.6,30.00,South,191,0.0,0.0,88,0.00,,,0.00,meteohub,2013-09-09 05:02:00,
2013-09-09 00:07:00,74.7,71.2,30.00,South,191,0.0,1.0,89,0.00,,,0.00,meteohub,2013-09-09 05:07:00,
2013-09-09 00:12:00,74.5,71.4,30.00,South,191,0.0,1.0,90,0.00,,,0.00,meteohub,2013-09-09 05:12:00,
2013-09-09 00:17:00,73.8,70.7,30.00,South,191,0.0,1.0,90,0.00,,,0.00,meteohub,2013-09-09 05:17:00,
2013-09-09 00:22:00,74.1,71.6,30.00,South,191,0.0,0.0,92,0.00,,,0.00,meteohub,2013-09-09 05:22:00,
2013-09-09 00:27:00,74.1,71.2,29.99,South,191,0.0,0.0,91,0.00,,,0.00,meteohub,2013-09-09 05:27:00,
2013-09-09 00:32:00,73.8,70.9,29.99,South,191,0.0,0.0,91,0.00,,,0.00,meteohub,2013-09-09 05:32:00,
2013-09-09 00:37:00,73.9,71.4,29.99,South,191,0.0,0.0,92,0.00,,,0.00,meteohub,2013-09-09 05:37:00,
2013-09-09 00:42:00,74.1,71.6,29.99,South,191,0.0,1.0,92,0.00,,,0.00,meteohub,2013-09-09 05:42:00,
2013-09-09 00:47:00,75.0,72.9,29.99,South,191,1.0,1.0,93,0.00,,,0.00,meteohub,2013-09-09 05:47:00,
2013-09-09 00:52:00,75.4,73.2,29.99,South,177,0.0,2.0,93,0.00,,,0.00,meteohub,2013-09-09 05:52:00,
2013-09-09 00:57:00,75.7,73.6,29.99,South,169,2.0,2.0,93,0.00,,,0.00,meteohub,2013-09-09 05:57:00,
2013-09-09 01:02:00,75.7,73.6,29.99,South,169,1.0,3.0,93,0.00,,,0.00,meteohub,2013-09-09 06:02:00,
2013-09-09 01:07:00,75.9,73.8,29.99,South,169,0.0,3.0,93,0.00,,,0.00,meteohub,2013-09-09 06:07:00,
2013-09-09 01:12:00,76.1,73.9,29.99,South,169,0.0,3.0,93,0.00,,,0.00,meteohub,2013-09-09 06:12:00,
2013-09-09 01:17:00,75.7,73.2,29.99,South,169,1.0,2.0,92,0.00,,,0.00,meteohub,2013-09-09 06:17:00,
2013-09-09 01:22:00,75.4,72.5,29.99,South,169,0.0,2.0,91,0.00,,,0.00,meteohub,2013-09-09 06:22:00,
2013-09-09 01:27:00,75.0,72.5,29.99,South,169,0.0,2.0,92,0.00,,,0.00,meteohub,2013-09-09 06:27:00,
2013-09-09 01:32:00,74.7,72.1,29.99,South,169,0.0,2.0,92,0.00,,,0.00,meteohub,2013-09-09 06:32:00,
2013-09-09 01:37:00,73.9,71.8,29.99,South,169,0.0,0.0,93,0.00,,,0.00,meteohub,2013-09-09 06:37:00,
2013-09-09 01:42:00,73.9,72.1,29.99,South,169,0.0,0.0,94,0.00,,,0.00,meteohub,2013-09-09 06:42:00,
2013-09-09 01:47:00,73.8,72.0,29.99,South,169,0.0,0.0,94,0.00,,,0.00,meteohub,2013-09-09 06:47:00,
2013-09-09 01:52:00,74.1,72.3,29.99,South,169,0.0,1.0,94,0.00,,,0.00,meteohub,2013-09-09 06:52:00,
2013-09-09 01:57:00,74.5,73.0,29.99,South,169,1.0,1.0,95,0.00,,,0.00,meteohub,2013-09-09 06:57:00,
2013-09-09 02:02:00,74.5,73.0,29.99,SSE,160,1.0,1.0,95,0.00,,,0.00,meteohub,2013-09-09 07:02:00,
2013-09-09 02:07:00,74.7,73.2,29.99,SE,144,2.0,3.0,95,0.00,,,0.00,meteohub,2013-09-09 07:07:00,
2013-09-09 02:12:00,75.4,73.6,29.99,SE,135,1.0,4.0,94,0.00,,,0.00,meteohub,2013-09-09 07:12:00,
2013-09-09 02:17:00,75.6,73.8,29.98,SE,130,0.0,4.0,94,0.00,,,0.00,meteohub,2013-09-09 07:17:00,
2013-09-09 02:23:00,75.7,74.1,29.98,SE,130,0.0,4.0,95,0.00,,,0.00,meteohub,2013-09-09 07:23:00,
2013-09-09 02:28:00,75.6,73.8,29.98,SE,130,0.0,4.0,94,0.00,,,0.00,meteohub,2013-09-09 07:28:00,
2013-09-09 02:33:00,75.4,73.6,29.98,SE,130,0.0,3.0,94,0.00,,,0.00,meteohub,2013-09-09 07:33:00,
2013-09-09 02:38:00,75.0,72.9,29.98,SE,130,0.0,3.0,93,0.00,,,0.00,meteohub,2013-09-09 07:38:00,
2013-09-09 02:43:00,74.7,72.9,29.98,SE,130,0.0,1.0,94,0.00,,,0.00,meteohub,2013-09-09 07:43:00,
2013-09-09 02:48:00,74.8,73.0,29.98,SE,130,0.0,1.0,94,0.00,,,0.00,meteohub,2013-09-09 07:48:00,
2013-09-09 02:53:00,74.7,72.9,29.98,SE,130,0.0,1.0,94,0.00,,,0.00,meteohub,2013-09-09 07:53:00,
2013-09-09 02:58:00,74.1,72.3,29.98,SE,130,1.0,1.0,94,0.00,,,0.00,meteohub,2013-09-09 07:58:00,
2013-09-09 03:03:00,74.1,72.3,29.98,SE,130,0.0,3.0,94,0.00,,,0.00,meteohub,2013-09-09 08:03:00,
2013-09-09 03:08:00,73.4,71.6,29.98,SE,130,0.0,3.0,94,0.00,,,0.00,meteohub,2013-09-09 08:08:00,
2013-09-09 03:13:00,73.6,72.1,29.98,SE,130,1.0,3.0,95,0.00,,,0.00,meteohub,2013-09-09 08:13:00,
2013-09-09 03:18:00,73.8,72.3,29.99,SE,130,0.0,1.0,95,0.00,,,0.00,meteohub,2013-09-09 08:18:00,
2013-09-09 03:23:00,73.8,72.3,29.99,SE,130,0.0,1.0,95,0.00,,,0.00,meteohub,2013-09-09 08:23:00,
2013-09-09 03:28:00,73.9,72.5,29.99,SE,130,0.0,1.0,95,0.00,,,0.00,meteohub,2013-09-09 08:28:00,
2013-09-09 03:33:00,73.8,72.0,29.99,SE,130,0.0,1.0,94,0.00,,,0.00,meteohub,2013-09-09 08:33:00,
2013-09-09 03:38:00,73.9,72.5,29.99,SE,130,0.0,1.0,95,0.00,,,0.00,meteohub,2013-09-09 08:38:00,
2013-09-09 03:43:00,73.4,71.6,29.99,SE,130,0.0,1.0,94,0.00,,,0.00,meteohub,2013-09-09 08:43:00,
2013-09-09 03:48:00,73.0,71.6,29.99,SE,130,0.0,1.0,95,0.00,,,0.00,meteohub,2013-09-09 08:48:00,
2013-09-09 03:53:00,73.0,71.6,29.99,SE,130,0.0,1.0,95,0.00,,,0.00,meteohub,2013-09-09 08:53:00,
2013-09-09 03:58:00,73.6,72.1,29.99,SE,130,0.0,1.0,95,0.00,,,0.00,meteohub,2013-09-09 08:58:00,
2013-09-09 04:03:00,73.8,72.3,29.99,SE,130,0.0,1.0,95,0.00,,,0.00,meteohub,2013-09-09 09:03:00,
2013-09-09 04:08:00,73.9,72.5,29.99,SE,130,0.0,2.0,95,0.00,,,0.00,meteohub,2013-09-09 09:08:00,
2013-09-09 04:13:00,73.9,72.1,29.99,SE,130,0.0,2.0,94,0.00,,,0.00,meteohub,2013-09-09 09:13:00,
2013-09-09 04:18:00,74.1,72.3,29.99,SE,130,0.0,2.0,94,0.00,,,0.00,meteohub,2013-09-09 09:18:00,
2013-09-09 04:23:00,74.5,73.0,29.99,SE,130,0.0,1.0,95,0.00,,,0.00,meteohub,2013-09-09 09:23:00,
2013-09-09 04:28:00,74.5,73.0,29.99,SE,130,1.0,1.0,95,0.00,,,0.00,meteohub,2013-09-09 09:28:00,
2013-09-09 04:33:00,74.5,73.0,29.99,SE,130,0.0,2.0,95,0.00,,,0.00,meteohub,2013-09-09 09:33:00,
2013-09-09 04:38:00,73.9,72.5,29.99,SE,130,0.0,2.0,95,0.00,,,0.00,meteohub,2013-09-09 09:38:00,
2013-09-09 04:43:00,73.9,72.5,29.99,SE,130,0.0,2.0,95,0.00,,,0.00,meteohub,2013-09-09 09:43:00,
2013-09-09 04:48:00,73.9,72.5,29.99,SE,130,0.0,2.0,95,0.00,,,0.00,meteohub,2013-09-09 09:48:00,
2013-09-09 04:53:00,73.9,72.5,29.99,SE,130,1.0,2.0,95,0.00,,,0.00,meteohub,2013-09-09 09:53:00,
2013-09-09 04:58:00,73.8,72.3,29.99,SE,130,1.0,3.0,95,0.00,,,0.00,meteohub,2013-09-09 09:58:00,
2013-09-09 05:03:00,73.8,72.3,29.99,SE,130,0.0,3.0,95,0.00,,,0.00,meteohub,2013-09-09 10:03:00,
2013-09-09 05:08:00,73.6,72.1,29.99,SE,130,0.0,4.0,95,0.00,,,0.00,meteohub,2013-09-09 10:08:00,
2013-09-09 05:13:00,73.6,72.1,30.00,SE,130,0.0,4.0,95,0.00,,,0.00,meteohub,2013-09-09 10:13:00,
2013-09-09 05:18:00,73.6,72.1,30.00,SE,130,1.0,4.0,95,0.00,,,0.00,meteohub,2013-09-09 10:18:00,
2013-09-09 05:23:00,73.6,71.8,30.00,SE,130,2.0,2.0,94,0.00,,,0.00,meteohub,2013-09-09 10:23:00,
2013-09-09 05:28:00,73.4,72.0,30.00,SE,130,0.0,2.0,95,0.00,,,0.00,meteohub,2013-09-09 10:28:00,
2013-09-09 05:33:00,73.4,72.0,30.00,SE,130,0.0,2.0,95,0.00,,,0.00,meteohub,2013-09-09 10:33:00,
2013-09-09 05:38:00,73.2,71.8,30.00,SE,130,0.0,2.0,95,0.00,,,0.00,meteohub,2013-09-09 10:38:00,
2013-09-09 05:43:00,73.2,71.8,30.00,SE,130,1.0,2.0,95,0.00,,,0.00,meteohub,2013-09-09 10:43:00,
2013-09-09 05:48:00,73.2,71.8,30.00,SE,130,0.0,2.0,95,0.00,,,0.00,meteohub,2013-09-09 10:48:00,
2013-09-09 05:53:00,73.2,71.8,30.00,SE,130,0.0,2.0,95,0.00,,,0.00,meteohub,2013-09-09 10:53:00,
2013-09-09 05:58:00,73.6,72.1,30.00,SE,130,1.0,2.0,95,0.00,,,0.00,meteohub,2013-09-09 10:58:00,
2013-09-09 06:03:00,73.8,72.5,30.01,SE,130,1.0,2.0,96,0.00,,,0.00,meteohub,2013-09-09 11:03:00,
2013-09-09 06:08:00,73.8,72.3,30.01,SE,130,0.0,2.0,95,0.00,,,0.00,meteohub,2013-09-09 11:08:00,
2013-09-09 06:13:00,73.8,72.3,30.01,SE,130,1.0,2.0,95,0.00,,,0.00,meteohub,2013-09-09 11:13:00,
2013-09-09 06:18:00,73.8,72.5,30.01,SE,130,0.0,2.0,96,0.00,,,0.00,meteohub,2013-09-09 11:18:00,
2013-09-09 06:23:00,73.6,72.1,30.01,SE,130,2.0,2.0,95,0.00,,,0.00,meteohub,2013-09-09 11:23:00,
2013-09-09 06:28:00,73.6,72.1,30.01,SE,130,0.0,3.0,95,0.00,,,0.00,meteohub,2013-09-09 11:28:00,
2013-09-09 06:33:00,73.6,72.3,30.01,SE,130,1.0,3.0,96,0.00,,,0.00,meteohub,2013-09-09 11:33:00,
2013-09-09 06:38:00,73.6,72.1,30.02,SE,130,0.0,3.0,95,0.00,,,0.00,meteohub,2013-09-09 11:38:00,
2013-09-09 06:43:00,73.4,72.0,30.02,SE,130,0.0,3.0,95,0.00,,,0.00,meteohub,2013-09-09 11:43:00,
2013-09-09 06:48:00,73.2,71.8,30.02,SE,130,3.0,3.0,95,0.01,,,0.01,meteohub,2013-09-09 11:48:00,
2013-09-09 06:53:00,73.2,71.8,30.02,SE,130,1.0,4.0,95,0.01,,,0.01,meteohub,2013-09-09 11:53:00,
2013-09-09 06:58:00,73.0,71.6,30.03,SE,130,1.0,4.0,95,0.01,,,0.01,meteohub,2013-09-09 11:58:00,
2013-09-09 07:03:00,73.0,71.6,30.03,SE,130,1.0,4.0,95,0.01,,,0.01,meteohub,2013-09-09 12:03:00,
2013-09-09 07:08:00,73.0,71.6,30.03,SE,130,1.0,4.0,95,0.01,,,0.01,meteohub,2013-09-09 12:08:00,
2013-09-09 07:13:00,73.0,71.2,30.03,NE,53,2.0,5.0,94,0.01,,,0.01,meteohub,2013-09-09 12:13:00,
2013-09-09 07:18:00,73.0,71.2,30.04,NE,52,5.0,7.0,94,0.01,,,0.01,meteohub,2013-09-09 12:18:00,
2013-09-09 07:23:00,73.2,71.4,30.04,NE,53,3.0,7.0,94,0.01,,,0.01,meteohub,2013-09-09 12:23:00,
2013-09-09 07:28:00,73.4,71.2,30.04,NE,53,2.0,7.0,93,0.01,,,0.01,meteohub,2013-09-09 12:28:00,
2013-09-09 07:34:00,73.6,71.4,30.04,NE,53,2.0,7.0,93,0.01,,,0.01,meteohub,2013-09-09 12:34:00,
2013-09-09 07:39:00,73.8,71.6,30.04,NE,53,2.0,7.0,93,0.01,,,0.01,meteohub,2013-09-09 12:39:00,
2013-09-09 07:44:00,73.9,71.8,30.04,NE,53,2.0,7.0,93,0.01,,,0.01,meteohub,2013-09-09 12:44:00,
2013-09-09 07:49:00,74.1,72.0,30.04,NE,53,2.0,7.0,93,0.00,,,0.01,meteohub,2013-09-09 12:49:00,
2013-09-09 07:54:00,74.5,72.0,30.04,NE,53,3.0,4.0,92,0.00,,,0.01,meteohub,2013-09-09 12:54:00,
2013-09-09 07:59:00,74.5,72.0,30.04,NE,53,2.0,5.0,92,0.00,,,0.01,meteohub,2013-09-09 12:59:00,
2013-09-09 08:04:00,74.8,72.3,30.04,NE,53,2.0,5.0,92,0.00,,,0.01,meteohub,2013-09-09 13:04:00,
2013-09-09 08:09:00,74.8,72.0,30.04,NE,53,2.0,5.0,91,0.00,,,0.01,meteohub,2013-09-09 13:09:00,
2013-09-09 08:14:00,75.0,72.1,30.04,NE,53,0.0,4.0,91,0.00,,,0.01,meteohub,2013-09-09 13:14:00,
2013-09-09 08:19:00,75.4,72.5,30.04,NE,53,1.0,4.0,91,0.00,,,0.01,meteohub,2013-09-09 13:19:00,
2013-09-09 08:24:00,75.6,72.7,30.05,NE,53,1.0,4.0,91,0.00,,,0.01,meteohub,2013-09-09 13:24:00,
2013-09-09 08:29:00,75.7,72.9,30.05,NE,53,1.0,4.0,91,0.00,,,0.01,meteohub,2013-09-09 13:29:00,
2013-09-09 08:34:00,76.3,73.0,30.05,NE,53,0.0,4.0,90,0.00,,,0.01,meteohub,2013-09-09 13:34:00,
2013-09-09 08:39:00,76.5,73.2,30.05,NE,53,0.0,4.0,90,0.00,,,0.01,meteohub,2013-09-09 13:39:00,
2013-09-09 08:44:00,76.8,73.4,30.05,NE,53,1.0,2.0,89,0.00,,,0.01,meteohub,2013-09-09 13:44:00,
2013-09-09 08:49:00,76.8,73.4,30.05,ENE,71,5.0,5.0,89,0.00,,,0.01,meteohub,2013-09-09 13:49:00,
2013-09-09 08:54:00,77.0,73.6,30.05,ENE,70,3.0,7.0,89,0.00,,,0.01,meteohub,2013-09-09 13:54:00,
2013-09-09 08:59:00,77.5,74.1,30.06,ENE,71,1.0,7.0,89,0.00,,,0.01,meteohub,2013-09-09 13:59:00,
2013-09-09 09:04:00,78.3,74.1,30.06,East,80,6.0,7.0,87,0.00,,,0.01,meteohub,2013-09-09 14:04:00,
2013-09-09 09:09:00,78.3,74.5,30.06,East,86,3.0,7.0,88,0.00,,,0.01,meteohub,2013-09-09 14:09:00,
2013-09-09 09:14:00,78.6,74.1,30.06,East,84,3.0,7.0,86,0.00,,,0.01,meteohub,2013-09-09 14:14:00,
2013-09-09 09:19:00,79.0,74.8,30.06,East,86,3.0,8.0,87,0.00,,,0.01,meteohub,2013-09-09 14:19:00,
2013-09-09 09:24:00,79.3,74.8,30.06,East,96,3.0,8.0,86,0.00,,,0.01,meteohub,2013-09-09 14:24:00,
2013-09-09 09:29:00,79.3,74.8,30.06,East,87,5.0,8.0,86,0.00,,,0.01,meteohub,2013-09-09 14:29:00,
2013-09-09 09:34:00,79.5,75.0,30.06,East,90,2.0,7.0,86,0.00,,,0.01,meteohub,2013-09-09 14:34:00,
2013-09-09 09:39:00,80.1,75.2,30.07,ENE,65,7.0,8.0,85,0.00,,,0.01,meteohub,2013-09-09 14:39:00,
2013-09-09 09:44:00,80.2,75.4,30.07,ENE,59,2.0,8.0,85,0.00,,,0.01,meteohub,2013-09-09 14:44:00,
2013-09-09 09:49:00,80.4,75.2,30.07,East,80,3.0,8.0,84,0.00,,,0.01,meteohub,2013-09-09 14:49:00,
2013-09-09 09:54:00,81.0,75.4,30.07,East,90,3.0,8.0,83,0.00,,,0.01,meteohub,2013-09-09 14:54:00,
2013-09-09 09:59:00,81.1,75.2,30.07,East,79,2.0,7.0,82,0.00,,,0.01,meteohub,2013-09-09 14:59:00,
2013-09-09 10:04:00,81.3,74.8,30.07,SE,129,2.0,7.0,81,0.00,,,0.01,meteohub,2013-09-09 15:04:00,
2013-09-09 10:09:00,81.5,74.7,30.07,East,82,2.0,8.0,80,0.00,,,0.01,meteohub,2013-09-09 15:09:00,
2013-09-09 10:14:00,81.7,74.8,30.07,ENE,77,1.0,8.0,80,0.00,,,0.01,meteohub,2013-09-09 15:14:00,
2013-09-09 10:19:00,82.0,75.2,30.07,ENE,74,7.0,8.0,80,0.00,,,0.01,meteohub,2013-09-09 15:19:00,
2013-09-09 10:24:00,82.0,75.2,30.07,East,87,5.0,8.0,80,0.00,,,0.01,meteohub,2013-09-09 15:24:00,
2013-09-09 10:29:00,82.2,75.0,30.07,ENE,71,4.0,10.0,79,0.00,,,0.01,meteohub,2013-09-09 15:29:00,
2013-09-09 10:34:00,82.4,74.8,30.07,ENE,59,5.0,10.0,78,0.00,,,0.01,meteohub,2013-09-09 15:34:00,
2013-09-09 10:39:00,82.8,75.6,30.07,ENE,74,2.0,10.0,79,0.00,,,0.01,meteohub,2013-09-09 15:39:00,
2013-09-09 10:44:00,82.8,75.2,30.07,East,93,9.0,9.0,78,0.00,,,0.01,meteohub,2013-09-09 15:44:00,
2013-09-09 10:49:00,82.6,74.7,30.07,East,84,3.0,10.0,77,0.00,,,0.01,meteohub,2013-09-09 15:49:00,
2013-09-09 10:54:00,83.1,75.2,30.07,ESE,105,2.0,10.0,77,0.00,,,0.01,meteohub,2013-09-09 15:54:00,
2013-09-09 11:00:00,83.8,75.4,30.06,ESE,118,8.0,10.0,76,0.00,,,0.01,meteohub,2013-09-09 16:00:00,
2013-09-09 11:05:00,84.0,74.8,30.06,ESE,115,5.0,9.0,74,0.00,,,0.01,meteohub,2013-09-09 16:05:00,
2013-09-09 11:10:00,84.4,74.8,30.06,SE,130,5.0,11.0,73,0.00,,,0.01,meteohub,2013-09-09 16:10:00,
2013-09-09 11:15:00,84.4,75.2,30.06,ESE,111,5.0,13.0,74,0.00,,,0.01,meteohub,2013-09-09 16:15:00,
2013-09-09 11:20:00,84.9,75.7,30.06,SE,124,7.0,13.0,74,0.00,,,0.01,meteohub,2013-09-09 16:20:00,
2013-09-09 11:25:00,84.6,74.5,30.06,East,98,5.0,13.0,72,0.00,,,0.01,meteohub,2013-09-09 16:25:00,
2013-09-09 11:30:00,85.3,75.2,30.07,ESE,111,9.0,10.0,72,0.00,,,0.01,meteohub,2013-09-09 16:30:00,
2013-09-09 11:35:00,84.7,75.2,30.07,ESE,120,5.0,10.0,73,0.00,,,0.01,meteohub,2013-09-09 16:35:00,
2013-09-09 11:40:00,85.5,74.5,30.06,ESE,106,7.0,10.0,70,0.00,,,0.01,meteohub,2013-09-09 16:40:00,
2013-09-09 11:45:00,85.1,74.7,30.06,ESE,104,7.0,11.0,71,0.00,,,0.01,meteohub,2013-09-09 16:45:00,
2013-09-09 11:50:00,85.6,74.7,30.06,SSE,164,6.0,11.0,70,0.00,,,0.01,meteohub,2013-09-09 16:50:00,
2013-09-09 11:55:00,86.2,74.8,30.06,SSE,148,3.0,11.0,69,0.00,,,0.01,meteohub,2013-09-09 16:55:00,
2013-09-09 12:00:00,86.5,74.3,30.06,SE,146,8.0,11.0,67,0.00,,,0.01,meteohub,2013-09-09 17:00:00,
2013-09-09 12:05:00,86.5,73.4,30.06,SE,141,8.0,11.0,65,0.00,,,0.01,meteohub,2013-09-09 17:05:00,
2013-09-09 12:10:00,86.2,73.4,30.06,ESE,109,8.0,13.0,66,0.00,,,0.01,meteohub,2013-09-09 17:10:00,
2013-09-09 12:15:00,86.2,73.4,30.06,ENE,76,5.0,15.0,66,0.00,,,0.01,meteohub,2013-09-09 17:15:00,
2013-09-09 12:20:00,86.5,73.8,30.06,SE,128,4.0,15.0,66,0.00,,,0.01,meteohub,2013-09-09 17:20:00,
2013-09-09 12:25:00,86.4,73.6,30.06,ESE,113,5.0,15.0,66,0.00,,,0.01,meteohub,2013-09-09 17:25:00,
2013-09-09 12:30:00,86.7,74.8,30.06,SE,135,6.0,15.0,68,0.00,,,0.01,meteohub,2013-09-09 17:30:00,
2013-09-09 12:35:00,86.7,73.9,30.06,SE,132,11.0,15.0,66,0.00,,,0.01,meteohub,2013-09-09 17:35:00,
2013-09-09 12:40:00,87.3,75.0,30.06,SSE,148,4.0,15.0,67,0.00,,,0.01,meteohub,2013-09-09 17:40:00,
2013-09-09 12:45:00,87.6,75.4,30.06,SE,138,7.0,14.0,67,0.00,,,0.01,meteohub,2013-09-09 17:45:00,
2013-09-09 12:50:00,88.0,73.8,30.06,ESE,113,12.0,14.0,63,0.00,,,0.01,meteohub,2013-09-09 17:50:00,
2013-09-09 12:55:00,87.4,73.8,30.06,SE,126,6.0,14.0,64,0.00,,,0.01,meteohub,2013-09-09 17:55:00,
2013-09-09 13:00:00,87.6,74.3,30.06,SE,142,3.0,16.0,65,0.00,,,0.01,meteohub,2013-09-09 18:00:00,
2013-09-09 13:05:00,88.0,74.3,30.06,SE,132,4.0,16.0,64,0.00,,,0.01,meteohub,2013-09-09 18:05:00,
2013-09-09 13:10:00,87.4,74.3,30.05,SE,144,2.0,16.0,65,0.00,,,0.01,meteohub,2013-09-09 18:10:00,
2013-09-09 13:15:00,88.3,75.0,30.05,South,172,5.0,12.0,65,0.00,,,0.01,meteohub,2013-09-09 18:15:00,
2013-09-09 13:20:00,87.8,74.1,30.05,South,189,3.0,12.0,64,0.00,,,0.01,meteohub,2013-09-09 18:20:00,
2013-09-09 13:25:00,88.9,75.2,30.05,SE,128,6.0,14.0,64,0.00,,,0.01,meteohub,2013-09-09 18:25:00,
2013-09-09 13:30:00,88.2,73.9,30.04,South,174,1.0,14.0,63,0.00,,,0.01,meteohub,2013-09-09 18:30:00,
2013-09-09 13:35:00,88.3,75.0,30.04,SSE,149,6.0,14.0,65,0.00,,,0.01,meteohub,2013-09-09 18:35:00,
2013-09-09 13:40:00,88.5,73.8,30.04,SE,135,5.0,14.0,62,0.00,,,0.01,meteohub,2013-09-09 18:40:00,
2013-09-09 13:45:00,88.3,74.1,30.04,SSW,204,7.0,14.0,63,0.00,,,0.01,meteohub,2013-09-09 18:45:00,
2013-09-09 13:50:00,89.6,74.3,30.04,SSE,165,4.0,12.0,61,0.00,,,0.01,meteohub,2013-09-09 18:50:00,
2013-09-09 13:55:00,88.5,74.3,30.04,SE,134,5.0,12.0,63,0.00,,,0.01,meteohub,2013-09-09 18:55:00,
2013-09-09 14:00:00,88.9,73.2,30.04,ESE,111,7.0,12.0,60,0.00,,,0.01,meteohub,2013-09-09 19:00:00,
2013-09-09 14:05:00,88.9,73.8,30.04,SE,125,4.0,12.0,61,0.00,,,0.01,meteohub,2013-09-09 19:05:00,
2013-09-09 14:10:00,88.7,73.0,30.04,SE,125,5.0,12.0,60,0.00,,,0.01,meteohub,2013-09-09 19:10:00,
2013-09-09 14:15:00,89.1,73.4,30.03,ESE,121,4.0,12.0,60,0.00,,,0.01,meteohub,2013-09-09 19:15:00,
2013-09-09 14:20:00,89.2,73.6,30.03,SSE,156,3.0,10.0,60,0.00,,,0.01,meteohub,2013-09-09 19:20:00,
2013-09-09 14:25:00,89.4,73.2,30.03,ESE,111,2.0,10.0,59,0.00,,,0.01,meteohub,2013-09-09 19:25:00,
2013-09-09 14:30:00,89.8,73.0,30.03,SE,124,5.0,10.0,58,0.00,,,0.01,meteohub,2013-09-09 19:30:00,
2013-09-09 14:35:00,89.8,73.6,30.02,SE,138,4.0,10.0,59,0.00,,,0.01,meteohub,2013-09-09 19:35:00,
2013-09-09 14:40:00,89.8,73.6,30.02,ESE,123,1.0,10.0,59,0.00,,,0.01,meteohub,2013-09-09 19:40:00,
2013-09-09 14:45:00,90.1,73.9,30.02,SE,132,6.0,10.0,59,0.00,,,0.01,meteohub,2013-09-09 19:45:00,
2013-09-09 14:51:00,89.6,72.9,30.02,SSE,163,4.0,11.0,58,0.00,,,0.01,meteohub,2013-09-09 19:51:00,
2013-09-09 14:56:00,89.8,73.6,30.01,SE,132,8.0,12.0,59,0.00,,,0.01,meteohub,2013-09-09 19:56:00,
2013-09-09 15:01:00,89.2,72.5,30.01,ESE,121,10.0,12.0,58,0.00,,,0.01,meteohub,2013-09-09 20:01:00,
2013-09-09 15:06:00,89.6,72.3,30.01,SE,133,5.0,12.0,57,0.00,,,0.01,meteohub,2013-09-09 20:06:00,
2013-09-09 15:11:00,90.0,73.2,30.01,ESE,117,5.0,12.0,58,0.00,,,0.01,meteohub,2013-09-09 20:11:00,
2013-09-09 15:16:00,89.2,73.0,30.01,SE,132,6.0,12.0,59,0.00,,,0.01,meteohub,2013-09-09 20:16:00,
2013-09-09 15:21:00,89.6,74.3,30.01,ESE,117,12.0,12.0,61,0.00,,,0.01,meteohub,2013-09-09 20:21:00,
2013-09-09 15:26:00,89.4,71.6,30.01,ESE,122,8.0,13.0,56,0.00,,,0.01,meteohub,2013-09-09 20:26:00,
2013-09-09 15:31:00,89.4,73.2,30.01,ESE,120,3.0,13.0,59,0.00,,,0.01,meteohub,2013-09-09 20:31:00,
2013-09-09 15:36:00,89.2,73.6,30.01,ESE,121,4.0,13.0,60,0.00,,,0.01,meteohub,2013-09-09 20:36:00,
2013-09-09 15:41:00,89.8,73.0,30.01,ESE,113,8.0,11.0,58,0.00,,,0.01,meteohub,2013-09-09 20:41:00,
2013-09-09 15:46:00,89.4,73.2,30.00,SE,127,7.0,10.0,59,0.00,,,0.01,meteohub,2013-09-09 20:46:00,
2013-09-09 15:51:00,90.1,73.9,30.01,SE,139,6.0,11.0,59,0.00,,,0.01,meteohub,2013-09-09 20:51:00,
2013-09-09 15:56:00,89.8,73.6,30.01,SSE,155,4.0,11.0,59,0.00,,,0.01,meteohub,2013-09-09 20:56:00,
2013-09-09 16:01:00,90.0,73.8,30.00,ESE,119,4.0,11.0,59,0.00,,,0.01,meteohub,2013-09-09 21:01:00,
2013-09-09 16:06:00,89.6,73.9,30.01,ESE,118,9.0,11.0,60,0.00,,,0.01,meteohub,2013-09-09 21:06:00,
2013-09-09 16:11:00,90.1,74.3,30.00,ESE,116,8.0,10.0,60,0.00,,,0.01,meteohub,2013-09-09 21:11:00,
2013-09-09 16:16:00,89.2,73.9,30.01,ESE,123,7.0,12.0,61,0.00,,,0.01,meteohub,2013-09-09 21:16:00,
2013-09-09 16:21:00,89.4,74.7,30.00,SE,125,6.0,12.0,62,0.00,,,0.01,meteohub,2013-09-09 21:21:00,
2013-09-09 16:26:00,89.2,75.4,30.01,SE,133,5.0,12.0,64,0.00,,,0.01,meteohub,2013-09-09 21:26:00,
2013-09-09 16:31:00,88.5,75.2,30.01,SE,132,11.0,11.0,65,0.00,,,0.01,meteohub,2013-09-09 21:31:00,
2013-09-09 16:36:00,88.3,74.7,30.01,SE,124,10.0,13.0,64,0.00,,,0.01,meteohub,2013-09-09 21:36:00,
2013-09-09 16:41:00,88.3,75.0,30.00,ESE,123,7.0,13.0,65,0.00,,,0.01,meteohub,2013-09-09 21:41:00,
2013-09-09 16:46:00,88.9,75.2,30.00,SE,136,4.0,13.0,64,0.00,,,0.01,meteohub,2013-09-09 21:46:00,
2013-09-09 16:51:00,89.1,75.7,30.00,ESE,113,5.0,12.0,65,0.00,,,0.01,meteohub,2013-09-09 21:51:00,
2013-09-09 16:56:00,88.9,75.6,30.00,SE,130,5.0,12.0,65,0.00,,,0.01,meteohub,2013-09-09 21:56:00,
2013-09-09 17:01:00,88.5,75.2,30.00,East,100,6.0,10.0,65,0.00,,,0.01,meteohub,2013-09-09 22:01:00,
2013-09-09 17:06:00,88.5,75.2,30.00,ESE,115,5.0,10.0,65,0.00,,,0.01,meteohub,2013-09-09 22:06:00,
2013-09-09 17:11:00,88.9,74.7,30.00,SE,126,5.0,10.0,63,0.00,,,0.01,meteohub,2013-09-09 22:11:00,
2013-09-09 17:16:00,88.9,75.2,30.00,SE,126,5.0,10.0,64,0.00,,,0.01,meteohub,2013-09-09 22:16:00,
2013-09-09 17:21:00,88.5,74.3,30.00,ESE,103,8.0,10.0,63,0.00,,,0.01,meteohub,2013-09-09 22:21:00,
2013-09-09 17:26:00,88.3,74.1,30.01,SE,125,8.0,10.0,63,0.00,,,0.01,meteohub,2013-09-09 22:26:00,
2013-09-09 17:31:00,88.3,75.0,30.01,SE,134,6.0,11.0,65,0.00,,,0.01,meteohub,2013-09-09 22:31:00,
2013-09-09 17:36:00,88.3,74.1,30.00,ESE,117,10.0,11.0,63,0.00,,,0.01,meteohub,2013-09-09 22:36:00,
2013-09-09 17:41:00,88.3,74.7,30.00,ESE,102,9.0,11.0,64,0.00,,,0.01,meteohub,2013-09-09 22:41:00,
2013-09-09 17:46:00,88.3,73.6,30.00,ESE,121,7.0,13.0,62,0.00,,,0.01,meteohub,2013-09-09 22:46:00,
2013-09-09 17:51:00,88.2,73.4,30.01,ESE,121,7.0,13.0,62,0.00,,,0.01,meteohub,2013-09-09 22:51:00,
2013-09-09 17:56:00,88.3,74.1,30.01,ESE,119,8.0,13.0,63,0.00,,,0.01,meteohub,2013-09-09 22:56:00,
2013-09-09 18:01:00,88.2,73.9,30.01,SE,130,7.0,12.0,63,0.00,,,0.01,meteohub,2013-09-09 23:01:00,
2013-09-09 18:06:00,88.2,73.9,30.01,ESE,123,4.0,12.0,63,0.00,,,0.01,meteohub,2013-09-09 23:06:00,
2013-09-09 18:11:00,88.2,73.9,30.01,SE,126,5.0,10.0,63,0.00,,,0.01,meteohub,2013-09-09 23:11:00,
2013-09-09 18:16:00,88.2,73.4,30.01,SE,128,5.0,9.0,62,0.00,,,0.01,meteohub,2013-09-09 23:16:00,
2013-09-09 18:22:00,88.2,73.4,30.01,SE,132,8.0,9.0,62,0.00,,,0.01,meteohub,2013-09-09 23:22:00,
2013-09-09 18:27:00,88.0,73.4,30.01,ESE,123,9.0,9.0,62,0.00,,,0.01,meteohub,2013-09-09 23:27:00,
2013-09-09 18:32:00,87.6,73.4,30.01,ESE,120,7.0,10.0,63,0.00,,,0.01,meteohub,2013-09-09 23:32:00,
2013-09-09 18:37:00,87.4,73.2,30.01,ESE,123,8.0,10.0,63,0.00,,,0.01,meteohub,2013-09-09 23:37:00,
2013-09-09 18:42:00,87.3,73.6,30.01,ESE,122,4.0,10.0,64,0.00,,,0.01,meteohub,2013-09-09 23:42:00,
2013-09-09 18:47:00,87.3,74.1,30.01,ESE,121,4.0,10.0,65,0.00,,,0.01,meteohub,2013-09-09 23:47:00,
2013-09-09 18:52:00,87.3,73.6,30.01,ESE,121,9.0,10.0,64,0.00,,,0.01,meteohub,2013-09-09 23:52:00,
2013-09-09 18:57:00,87.1,73.4,30.01,ESE,121,5.0,9.0,64,0.00,,,0.01,meteohub,2013-09-09 23:57:00,
2013-09-09 19:02:00,87.1,73.9,30.01,ESE,121,7.0,9.0,65,0.00,,,0.01,meteohub,2013-09-10 00:02:00,
2013-09-09 19:07:00,86.7,73.6,30.01,ESE,121,8.0,9.0,65,0.00,,,0.01,meteohub,2013-09-10 00:07:00,
2013-09-09 19:12:00,86.7,73.6,30.01,ESE,122,5.0,10.0,65,0.00,,,0.01,meteohub,2013-09-10 00:12:00,
2013-09-09 19:17:00,86.7,73.9,30.01,SE,125,7.0,10.0,66,0.00,,,0.01,meteohub,2013-09-10 00:17:00,
2013-09-09 19:22:00,86.5,73.8,30.01,ESE,123,8.0,10.0,66,0.00,,,0.01,meteohub,2013-09-10 00:22:00,
2013-09-09 19:27:00,86.2,73.9,30.01,ESE,122,7.0,10.0,67,0.00,,,0.01,meteohub,2013-09-10 00:27:00,
2013-09-09 19:32:00,85.8,73.9,30.01,ESE,122,5.0,10.0,68,0.00,,,0.01,meteohub,2013-09-10 00:32:00,
2013-09-09 19:37:00,85.6,73.9,30.01,ESE,123,9.0,10.0,68,0.00,,,0.01,meteohub,2013-09-10 00:37:00,
2013-09-09 19:42:00,85.6,73.4,30.01,SE,125,6.0,11.0,67,0.00,,,0.01,meteohub,2013-09-10 00:42:00,
2013-09-09 19:47:00,85.5,73.8,30.01,SE,125,7.0,11.0,68,0.00,,,0.01,meteohub,2013-09-10 00:47:00,
2013-09-09 19:52:00,85.3,73.6,30.01,SE,127,6.0,11.0,68,0.00,,,0.01,meteohub,2013-09-10 00:52:00,
2013-09-09 19:57:00,84.9,73.2,30.01,SE,125,6.0,9.0,68,0.00,,,0.01,meteohub,2013-09-10 00:57:00,
2013-09-09 20:02:00,84.9,73.6,30.01,ESE,123,2.0,10.0,69,0.00,,,0.01,meteohub,2013-09-10 01:02:00,
2013-09-09 20:07:00,84.6,73.2,30.01,ESE,123,9.0,10.0,69,0.00,,,0.01,meteohub,2013-09-10 01:07:00,
2013-09-09 20:12:00,84.7,73.0,30.02,ESE,123,7.0,10.0,68,0.00,,,0.01,meteohub,2013-09-10 01:12:00,
2013-09-09 20:17:00,84.6,72.9,30.02,SE,124,5.0,9.0,68,0.00,,,0.01,meteohub,2013-09-10 01:17:00,
2013-09-09 20:22:00,84.6,73.2,30.02,SE,124,5.0,9.0,69,0.00,,,0.01,meteohub,2013-09-10 01:22:00,
2013-09-09 20:27:00,84.6,73.2,30.02,SE,128,4.0,9.0,69,0.00,,,0.01,meteohub,2013-09-10 01:27:00,
2013-09-09 20:32:00,84.6,73.2,30.02,SE,124,7.0,9.0,69,0.00,,,0.01,meteohub,2013-09-10 01:32:00,
2013-09-09 20:37:00,84.4,73.0,30.03,ESE,123,8.0,9.0,69,0.00,,,0.01,meteohub,2013-09-10 01:37:00,
2013-09-09 20:42:00,84.2,73.4,30.03,SE,124,6.0,10.0,70,0.00,,,0.01,meteohub,2013-09-10 01:42:00,
2013-09-09 20:47:00,84.0,73.2,30.03,ESE,123,8.0,10.0,70,0.00,,,0.01,meteohub,2013-09-10 01:47:00,
2013-09-09 20:52:00,83.8,73.0,30.03,ESE,122,8.0,10.0,70,0.00,,,0.01,meteohub,2013-09-10 01:52:00,
2013-09-09 20:57:00,83.8,73.4,30.03,ESE,123,5.0,10.0,71,0.00,,,0.01,meteohub,2013-09-10 01:57:00,
2013-09-09 21:02:00,83.7,73.2,30.03,ESE,122,4.0,10.0,71,0.00,,,0.01,meteohub,2013-09-10 02:02:00,
2013-09-09 21:07:00,83.5,73.6,30.03,ESE,122,8.0,10.0,72,0.00,,,0.01,meteohub,2013-09-10 02:07:00,
2013-09-09 21:12:00,83.1,73.2,30.03,ESE,122,7.0,10.0,72,0.00,,,0.01,meteohub,2013-09-10 02:12:00,
2013-09-09 21:17:00,83.1,73.2,30.04,ESE,123,8.0,10.0,72,0.00,,,0.01,meteohub,2013-09-10 02:17:00,
2013-09-09 21:22:00,82.9,73.0,30.04,ESE,123,7.0,10.0,72,0.00,,,0.01,meteohub,2013-09-10 02:22:00,
2013-09-09 21:27:00,82.9,73.0,30.04,ESE,123,8.0,10.0,72,0.00,,,0.01,meteohub,2013-09-10 02:27:00,
2013-09-09 21:32:00,82.8,72.9,30.04,SE,125,7.0,9.0,72,0.00,,,0.01,meteohub,2013-09-10 02:32:00,
2013-09-09 21:37:00,82.8,73.2,30.04,ESE,123,8.0,11.0,73,0.00,,,0.01,meteohub,2013-09-10 02:37:00,
2013-09-09 21:42:00,82.8,73.2,30.04,ESE,123,8.0,11.0,73,0.00,,,0.01,meteohub,2013-09-10 02:42:00,
2013-09-09 21:47:00,82.6,73.4,30.04,ESE,123,7.0,11.0,74,0.00,,,0.01,meteohub,2013-09-10 02:47:00,
2013-09-09 21:52:00,82.2,73.0,30.04,ESE,123,7.0,10.0,74,0.00,,,0.01,meteohub,2013-09-10 02:52:00,
2013-09-09 21:57:00,82.2,73.6,30.04,ESE,123,5.0,10.0,75,0.00,,,0.01,meteohub,2013-09-10 02:57:00,
2013-09-09 22:02:00,82.2,73.6,30.04,ESE,123,5.0,10.0,75,0.00,,,0.01,meteohub,2013-09-10 03:02:00,
2013-09-09 22:07:00,82.2,73.6,30.04,SE,125,6.0,10.0,75,0.00,,,0.01,meteohub,2013-09-10 03:07:00,
2013-09-09 22:12:00,82.2,73.9,30.04,ESE,123,8.0,10.0,76,0.00,,,0.01,meteohub,2013-09-10 03:12:00,
2013-09-09 22:17:00,82.0,73.8,30.04,ESE,123,4.0,10.0,76,0.00,,,0.01,meteohub,2013-09-10 03:17:00,
2013-09-09 22:22:00,82.0,73.8,30.04,ESE,123,4.0,10.0,76,0.00,,,0.01,meteohub,2013-09-10 03:22:00,
2013-09-09 22:27:00,81.9,73.9,30.04,ESE,123,3.0,8.0,77,0.00,,,0.01,meteohub,2013-09-10 03:27:00,
2013-09-09 22:32:00,81.7,73.8,30.04,ESE,123,3.0,8.0,77,0.00,,,0.01,meteohub,2013-09-10 03:32:00,
2013-09-09 22:37:00,81.9,74.3,30.04,ESE,123,1.0,8.0,78,0.00,,,0.01,meteohub,2013-09-10 03:37:00,
2013-09-09 22:42:00,81.9,73.9,30.04,ESE,123,2.0,8.0,77,0.00,,,0.01,meteohub,2013-09-10 03:42:00,
2013-09-09 22:47:00,81.7,74.1,30.04,ESE,123,4.0,8.0,78,0.00,,,0.01,meteohub,2013-09-10 03:47:00,
2013-09-09 22:52:00,81.3,73.8,30.04,ESE,123,4.0,7.0,78,0.00,,,0.01,meteohub,2013-09-10 03:52:00,
2013-09-09 22:57:00,81.1,73.9,30.04,ESE,123,4.0,7.0,79,0.00,,,0.01,meteohub,2013-09-10 03:57:00,
2013-09-09 23:01:00,80.8,73.6,30.04,ESE,123,7.0,7.0,79,0.00,,,0.01,meteohub,2013-09-10 04:01:00,
2013-09-09 23:03:00,80.8,73.6,30.04,ESE,123,7.0,7.0,79,0.00,,,0.01,meteohub,2013-09-10 04:03:00,
2013-09-09 23:05:00,80.8,73.6,30.04,ESE,123,5.0,8.0,79,0.00,,,0.01,meteohub,2013-09-10 04:05:00,
2013-09-09 23:07:00,80.8,73.9,30.04,ESE,123,5.0,8.0,80,0.00,,,0.01,meteohub,2013-09-10 04:07:00,
2013-09-09 23:12:00,80.8,73.6,30.04,ESE,123,8.0,9.0,79,0.00,,,0.01,meteohub,2013-09-10 04:12:00,
2013-09-09 23:17:00,80.6,73.4,30.04,SE,126,7.0,10.0,79,0.00,,,0.01,meteohub,2013-09-10 04:17:00,
2013-09-09 23:22:00,80.4,73.2,30.04,ESE,123,10.0,12.0,79,0.00,,,0.01,meteohub,2013-09-10 04:22:00,
2013-09-09 23:27:00,80.4,73.8,30.04,SE,125,9.0,12.0,80,0.00,,,0.01,meteohub,2013-09-10 04:27:00,
2013-09-09 23:32:00,80.2,73.6,30.04,ESE,123,8.0,12.0,80,0.00,,,0.01,meteohub,2013-09-10 04:32:00,
2013-09-09 23:37:00,80.2,73.6,30.04,SE,128,6.0,10.0,80,0.00,,,0.01,meteohub,2013-09-10 04:37:00,
2013-09-09 23:42:00,80.2,73.6,30.03,ESE,123,7.0,10.0,80,0.00,,,0.01,meteohub,2013-09-10 04:42:00,
2013-09-09 23:47:00,80.1,73.8,30.03,ESE,123,7.0,10.0,81,0.00,,,0.01,meteohub,2013-09-10 04:47:00,
2013-09-09 23:52:00,80.1,73.8,30.04,ESE,123,8.0,10.0,81,0.00,,,0.01,meteohub,2013-09-10 04:52:00,
2013-09-09 23:57:00,79.9,73.6,30.03,ESE,121,8.0,10.0,81,0.00,,,0.01,meteohub,2013-09-10 04:57:00,